User: anonymous   Login
Location: Aiyekoto
(8.4333°N, 4.3667°E)
Time: 03:49:13
(UTC+00:00)
Language:

Hubble Space Telescope - Orbit

View from above orbital plane
View from above orbital plane
View from above satellite
View from above satellite

Ground track
Ground track

The orbit data is extracted from the following two-line orbital elements,

1 20580U 90037B   20266.82892953 +.00000391 +00000-0 +12767-4 0  9996
2 20580 028.4706 035.5932 0002896 061.1762 072.1463 15.09433893470783
Epoch (UTC): 22 September 2020 19:53:39
Eccentricity: 0.0002896
inclination: 28.4706°
perigee height: 536 km
apogee height: 540 km
right ascension of ascending node: 35.5932°
argument of perigee: 61.1762°
revolutions per day: 15.09433893
mean anomaly at epoch: 72.1463°
orbit number at epoch: 47078

The dashed part of the orbit path shows where the satellite is in the earth's shadow,  

DLR